Location: Park Creek Village Mobile Home Park
(38.2885°N, 122.4714°W)
Time: 06:22:15
(UTC+00:00)

Cosmos 371 Rocket - Pass Details

Date: 14 December 2019
Orbit: 684 x 699 km, 74.0° (Epoch: 26 January)

Event Time Altitude Azimuth Distance (km) Brightness Sun altitude
Rises 13:38:59 0° 205° (SSW) 3,043 6.5 -18.9°
Reaches altitude 10° 13:41:18 10° 209° (SSW) 2,134 5.7 -18.5°
Maximum altitude 13:46:04 62° 290° (WNW) 779 3.2 -17.6°
Drops below altitude 10° 13:50:53 10° 12° (NNE) 2,158 5.8 -16.7°
Sets 13:53:15 0° 15° (NNE) 3,082 6.6 -16.2°
